Location: Seven Kings
(51.5667°N, 0.1000°E)
Time: 14:31:34
(UTC+00:00)

ARGOS - Pass Details

Date: 29 October 2020
Orbit: 820 x 835 km, 98.4° (Epoch: 28 November)

Event Time Altitude Azimuth Distance (km) Brightness Sun altitude
Exits shadow 18:17:19 16° 129° (SE) 2,078 4.8 -16.0°
Maximum altitude 18:21:22 42° 65° (ENE) 1,180 3.5 -16.6°
Drops below altitude 10° 18:26:27 10° 356° (N) 2,460 5.7 -17.4°
Sets 18:28:55 0° 350° (N) 3,398 6.5 -17.8°
